Weather Roundup
Issued by NWS Springfield, MO

Home | Current Version | Previous Version | Text Only | Print | Product List | Glossary On
Versions: 1 2 3 4 5 6 7 8 9 10 11 12 13 14 15 16 17 18 19 20 21 22 23 24 25 26 27 28 29 30 31 32 33 34 35 36 37 38 39 40 41 42 43 44 45 46 47 48 49 50
000
NZUS99 KSGF 191659
HRRSGF

HOURLY WEATHER
NATIONAL WEATHER SERVICE SPRINGFIELD MO
1200 PM CDT FRI SEP 19 2014

......SGF CWA......

CITY           SKY/WX    TMP DP  RH WIND       PRES   REMARKS
SPRINGFIELD    SUNNY     74  63  68 S6        30.06F
JOPLIN         PTSUNNY   75  67  76 S7        30.05S
WEST PLAINS    SUNNY     72  59  63 SE6       30.09F
ROLLA          SUNNY     72  59  63 SE10      30.07F
OSAGE BEACH    MOSUNNY   73  61  64 S10       30.07F
BRANSON        CLOUDY    73  63  68 SE8       30.10R

......SURROUNDING SGF CWA......

CITY           SKY/WX    TMP DP  RH WIND       PRES   REMARKS
CHANUTE        CLOUDY    69  67  93 S9        30.03S FOG
PARSONS        CLOUDY    71  68  90 S7        30.04S FOG
COFFEYVILLE    CLOUDY    71  68  90 S8        30.03S
EMPORIA        CLOUDY    70  67  90 S12       30.00F
SILOAM SPRINGS CLOUDY    75  64  69 W3        30.06F
HARRISON AR    PTSUNNY   72  64  76 S3        30.09S
NEAR YELLVILLE SUNNY     73  61  64 SE6       30.07S

......KANSAS AND MISSOURI......

CITY           SKY/WX    TMP DP  RH WIND       PRES   REMARKS
KANSAS CTY INT CLOUDY    66  64  93 S8        30.02F FOG
DOWNTOWN KC    CLOUDY    69  64  84 S7        30.02F HAZE
COLUMBIA       SUNNY     74  60  61 SE10      30.07
SEDALIA        PTSUNNY   74  62  66 S12       30.05F
ST JOSEPH      CLOUDY    68  64  87 S13       30.00F
ST LOUIS       MOSUNNY   73  56  54 CALM      30.10F
SPIRIT OF STL  MOSUNNY   73  58  59 VRB5      30.09F
KIRKSVILLE     SUNNY     72  58  61 S13       30.06F
WICHITA        MOSUNNY   84  66  54 S10       29.98F
TOPEKA         CLOUDY    70  67  90 S10       29.99F
OLATHE         CLOUDY    66  65  96 S8        30.02S FOG

......TENNESSEE......

CITY           SKY/WX    TMP DP  RH WIND       PRES   REMARKS
MEMPHIS        MOSUNNY   80  65  59 VRB6      30.05S
NASHVILLE      MOSUNNY   80  61  52 NE5       30.08S

......ARKANSAS.......

CITY           SKY/WX    TMP DP  RH WIND       PRES   REMARKS
FAYETTEVILLE   SUNNY     77  67  71 VRB3      30.05F
FT SMITH       CLOUDY    76  66  71 NE7       30.04S
LITTLE ROCK    MOSUNNY   80  67  64 CALM      30.04S

......OKLAHOMA.......

CITY           SKY/WX    TMP DP  RH WIND       PRES   REMARKS
TULSA          CLOUDY    73  69  87 S6        30.01F FOG
PONCA CITY     SUNNY     79  69  71 S8        30.00S
MCALESTER      CLOUDY    78  70  76 VRB5      30.03S
OKLAHOMA CITY  MOSUNNY   82  68  62 SE8       30.01S

......IOWA............

CITY           SKY/WX    TMP DP  RH WIND       PRES   REMARKS
DES MOINES     CLOUDY    74  61  63 S21       29.97F
QUAD CITIES    SUNNY     71  52  50 S14       30.08F

......ILLINOIS........

CITY           SKY/WX    TMP DP  RH WIND       PRES   REMARKS
QUINCY         SUNNY     72  54  53 S8        30.08F
CHICAGO        MOSUNNY   71  51  49 S14G22    30.13F




USA.gov is the U.S. government's official web portal to all federal, state and local government web resources and services.